Time_in_sec,Latitude,Longitude,Altitude,Nbsat_max_qualitysignal,Nbsat_locked,valid_data
1314891287.55290937,46.54715347,8.71081257,1978.05029297,0,6,1
1314891394.29260612,46.54713058,8.71079063,1970.35180664,0,5,1
1314891394.34058738,46.54713058,8.71079063,1970.32055664,0,5,1
1314891394.39350629,46.54713058,8.71079063,1970.33691406,0,5,1
1314891394.44064379,46.54713058,8.71079063,1970.30578613,0,5,1
1314891394.49252105,46.54713058,8.71079063,1970.27465820,0,5,1
1314891394.54159617,46.54713058,8.71079063,1970.24353027,0,5,1
1314891394.59359908,46.54713058,8.71079063,1970.21240234,0,5,1
1314891394.64057493,46.54713440,8.71079159,1970.24426270,0,5,1
1314891394.69259310,46.54713440,8.71079159,1970.21325684,0,5,1
1314891394.75307012,46.54713440,8.71079159,1970.18225098,0,5,1
1314891394.79361558,46.54713440,8.71079159,1970.14514160,0,5,1
1314891394.84051061,46.54713440,8.71079159,1970.12036133,0,6,1
1314891394.89360666,46.54713821,8.71079350,1970.17822266,0,6,1
1314891394.94056392,46.54713821,8.71079350,1970.14746094,0,6,1
1314891394.99261904,46.54713821,8.71079350,1970.11682129,0,6,1
1314891395.04066825,46.54713821,8.71079350,1970.08605957,0,6,1
1314891395.10060549,46.54713821,8.71079350,1970.05529785,0,6,1
1314891395.14085889,46.54713821,8.71079540,1970.13549805,0,6,1
1314891395.19250607,46.54713821,8.71079540,1970.11132812,0,6,1
1314891395.24053383,46.54713821,8.71079540,1970.08105469,0,6,1
1314891395.30048180,46.54713821,8.71079540,1970.05078125,0,6,1
1314891395.34459090,46.54713821,8.71079540,1970.01440430,0,6,1
1314891395.39000106,46.54713821,8.71079731,1970.12731934,0,6,1
1314891395.45280409,46.54713821,8.71079731,1970.09765625,0,6,1
1314891395.49017859,46.54713821,8.71079731,1970.06188965,0,6,1
1314891395.54053068,46.54714203,8.71079731,1970.03796387,0,6,1
1314891395.59347606,46.54714203,8.71079731,1970.00817871,0,6,1
1314891395.64051127,46.54714203,8.71079826,1970.12304688,0,6,1
1314891395.69030762,46.54714203,8.71079922,1970.09423828,0,6,1
1314891395.74146390,46.54714203,8.71079922,1970.06481934,0,6,1
1314891395.79268312,46.54714203,8.71079922,1970.03552246,0,6,1
1314891395.84057999,46.54714203,8.71079922,1970.00610352,0,6,1
1314891395.89362311,46.54714203,8.71080112,1970.12878418,0,6,1
1314891395.95255351,46.54714203,8.71080112,1970.09997559,0,6,1
1314891395.99249101,46.54714203,8.71080112,1970.06530762,0,6,1
1314891396.04196906,46.54714203,8.71080112,1970.04211426,0,6,1
1314891396.09492278,46.54714203,8.71080112,1970.01318359,0,6,1
1314891396.14058590,46.54714584,8.71080303,1970.14624023,0,6,1
1314891396.19422817,46.54714203,8.71080303,1970.10986328,0,6,1
1314891396.24153996,46.54714203,8.71080303,1970.08142090,0,6,1
1314891396.29247332,46.54714203,8.71080303,1970.05285645,0,6,1
1314891396.34451151,46.54714203,8.71080303,1970.02441406,0,6,1
1314891396.40052009,46.54714584,8.71080399,1970.16601562,0,6,1
1314891396.44049501,46.54714584,8.71080399,1970.13256836,0,6,1
1314891396.50051618,46.54714584,8.71080399,1970.11022949,0,6,1
1314891396.54138613,46.54714584,8.71080399,1970.07666016,0,6,1
1314891396.59515524,46.54714584,8.71080399,1970.05432129,0,6,1
1314891396.64138532,46.54714584,8.71080399,1970.20288086,0,6,1
1314891396.70243835,46.54714584,8.71080399,1970.17553711,0,6,1
1314891396.74058080,46.54714584,8.71080399,1970.14270020,0,6,1
1314891396.79250145,46.54714584,8.71080399,1970.12072754,0,6,1
1314891396.84172845,46.54714584,8.71080399,1970.09338379,0,6,1
1314891396.89248157,46.54714584,8.71080494,1970.25378418,0,6,1
1314891396.95251703,46.54714584,8.71080494,1970.22705078,0,6,1
1314891396.99248576,46.54714584,8.71080494,1970.19494629,0,6,1
1314891397.04161763,46.54714584,8.71080494,1970.17358398,0,6,1
1314891397.09253645,46.54714584,8.71080494,1970.14685059,0,6,1
1314891397.14427209,46.54714584,8.71080494,1970.32189941,0,6,1
1314891397.19262862,46.54714584,8.71080494,1970.29589844,0,6,1
1314891397.24160862,46.54714584,8.71080494,1970.26989746,0,6,1
1314891397.30051494,46.54714584,8.71080494,1970.24389648,0,6,1
1314891397.35257626,46.54714584,8.71080494,1970.21264648,0,6,1
1314891397.40059757,46.54714584,8.71080399,1970.39892578,0,6,1
1314891397.44054389,46.54714584,8.71080399,1970.37365723,0,6,1
1314891397.49301958,46.54714584,8.71080399,1970.35351562,0,6,1
1314891397.54066706,46.54714584,8.71080399,1970.32824707,0,6,1
1314891397.59257293,46.54714584,8.71080399,1970.30297852,0,6,1
1314891397.64047480,46.54714584,8.71080494,1970.49169922,0,6,1
1314891397.69258714,46.54714584,8.71080494,1970.46716309,0,6,1
1314891397.74046803,46.54714584,8.71080494,1970.44262695,0,6,1
1314891397.79309535,46.54714584,8.71080494,1970.41821289,0,6,1
1314891397.85260582,46.54714584,8.71080494,1970.39367676,0,6,1
1314891397.90096593,46.54714584,8.71080589,1970.57824707,0,6,1
1314891397.95260525,46.54714584,8.71080589,1970.55444336,0,6,1
1314891398.00060844,46.54714584,8.71080589,1970.53063965,0,6,1
1314891398.05258107,46.54714584,8.71080494,1970.50683594,0,6,1
1314891398.10061216,46.54714584,8.71080494,1970.48303223,0,6,1
1314891398.14459157,46.54714966,8.71080494,1970.68078613,0,6,1
1314891398.20059967,46.54714966,8.71080494,1970.66235352,0,6,1
1314891398.24153948,46.54714966,8.71080494,1970.63464355,0,6,1
1314891398.30159044,46.54714966,8.71080494,1970.61621094,0,6,1
1314891398.35347962,46.54714966,8.71080399,1970.58850098,0,6,1
1314891398.40161705,46.54714966,8.71080589,1970.79370117,0,6,1
1314891398.44058371,46.54714966,8.71080589,1970.77148438,0,6,1
1314891398.50158954,46.54714966,8.71080589,1970.75366211,0,6,1
1314891398.55260587,46.54714966,8.71080589,1970.72680664,0,6,1
1314891398.59353161,46.54714966,8.71080494,1970.70446777,0,6,1
1314891398.64058542,46.54714966,8.71080589,1970.89428711,0,6,1
1314891398.70061755,46.54714966,8.71080589,1970.89514160,0,6,1
1314891398.75360751,46.54714966,8.71080589,1970.86938477,0,6,1
1314891398.80161262,46.54714966,8.71080589,1970.84790039,0,6,1
1314891398.85257816,46.54714966,8.71080589,1970.82641602,0,6,1
1314891398.90161777,46.54715347,8.71080589,1971.02917480,0,6,1
1314891398.94457316,46.54715347,8.71080589,1971.00854492,0,6,1
1314891399.00065160,46.54715347,8.71080589,1970.99206543,0,6,1
1314891399.05258298,46.54715347,8.71080589,1970.96716309,0,6,1
1314891399.10161090,46.54715347,8.71080589,1970.94653320,0,6,1
1314891399.15257573,46.54715347,8.71080589,1971.14672852,0,6,1
1314891399.20158911,46.54715347,8.71080589,1971.12683105,0,6,1
1314891399.25250649,46.54715347,8.71080589,1971.10693359,0,6,1
1314891399.30053830,46.54715347,8.71080589,1971.08691406,0,6,1
1314891399.35252738,46.54715347,8.71080589,1971.06701660,0,6,1
1314891399.40054202,46.54715347,8.71080685,1971.26037598,0,6,1
1314891399.45252919,46.54715347,8.71080685,1971.24108887,0,6,1
1314891399.50153065,46.54715347,8.71080685,1971.22192383,0,6,1
1314891399.55251455,46.54715347,8.71080685,1971.20263672,0,6,1
1314891399.59351492,46.54715347,8.71080685,1971.18334961,0,6,1
1314891399.65257955,46.54715347,8.71080685,1971.37145996,0,6,1
1314891399.70051074,46.54715347,8.71080685,1971.35290527,0,6,1
1314891399.75247216,46.54715347,8.71080685,1971.33435059,0,6,1
1314891399.80058026,46.54715347,8.71080685,1971.31579590,0,6,1
1314891399.85258937,46.54715347,8.71080685,1971.29711914,0,6,1
1314891399.90051866,46.54715347,8.71080589,1971.48034668,0,6,1
1314891399.95257831,46.54715347,8.71080589,1971.46240234,0,6,1
1314891400.00059199,46.54715347,8.71080589,1971.44445801,0,6,1
1314891400.05457258,46.54715347,8.71080589,1971.42651367,0,6,1
1314891400.10234857,46.54715347,8.71080589,1971.40856934,0,6,1
1314891400.15256977,46.54715347,8.71080589,1971.58325195,0,6,1
1314891400.20235753,46.54715347,8.71080589,1971.56591797,0,6,1
1314891400.25257087,46.54715347,8.71080589,1971.54846191,0,6,1
1314891400.30054188,46.54715347,8.71080589,1971.53112793,0,6,1
1314891400.35359597,46.54715347,8.71080589,1971.51367188,0,6,1
1314891400.40061116,46.54715347,8.71080589,1971.68383789,0,6,1
1314891400.45362234,46.54715347,8.71080494,1971.66699219,0,6,1
1314891400.50071645,46.54715347,8.71080494,1971.65014648,0,6,1
1314891400.55249214,46.54715347,8.71080494,1971.63330078,0,6,1
1314891400.59244943,46.54715347,8.71080494,1971.61633301,0,6,1
1314891400.65261507,46.54715347,8.71080494,1971.79467773,0,6,1
1314891400.70161128,46.54715347,8.71080589,1971.77233887,0,6,1
1314891400.75261593,46.54715347,8.71080589,1971.75610352,0,6,1
1314891400.80063343,46.54715347,8.71080589,1971.73986816,0,6,1
1314891400.85260296,46.54715347,8.71080589,1971.72351074,0,6,1
1314891400.90063858,46.54715347,8.71080685,1971.88708496,0,6,1
1314891400.95260859,46.54715347,8.71080685,1971.87133789,0,6,1
1314891401.00058270,46.54715347,8.71080685,1971.85559082,0,6,1
1314891401.05258083,46.54715347,8.71080685,1971.83984375,0,6,1
1314891401.10051775,46.54715347,8.71080685,1971.82409668,0,6,1
1314891401.15297961,46.54715729,8.71080780,1971.98962402,0,6,1
1314891401.20058131,46.54715729,8.71080780,1971.97448730,0,6,1
1314891401.25258279,46.54715729,8.71080780,1971.95935059,0,6,1
1314891401.30058408,46.54715729,8.71080685,1971.94421387,0,6,1
1314891401.35361695,46.54715729,8.71080685,1971.92907715,0,6,1
1314891401.40430069,46.54715729,8.71080685,1972.09179688,0,6,1
1314891401.45362210,46.54715729,8.71080685,1972.07714844,0,6,1
1314891401.50451732,46.54715729,8.71080685,1972.06250000,0,6,1
1314891401.55360675,46.54715729,8.71080685,1972.04785156,0,6,1
1314891401.59353876,46.54715729,8.71080685,1972.03320312,0,6,1
1314891401.65362644,46.54715729,8.71080685,1972.21911621,0,6,1
1314891401.70152950,46.54715729,8.71080589,1972.19897461,0,6,1
1314891401.75362158,46.54715729,8.71080589,1972.18493652,0,6,1
1314891401.80060482,46.54715729,8.71080589,1972.17089844,0,6,1
1314891401.85259295,46.54715729,8.71080589,1972.15686035,0,6,1
1314891401.90553045,46.54716110,8.71080589,1972.33898926,0,6,1
1314891401.95248842,46.54716110,8.71080589,1972.32556152,0,6,1
1314891402.00153708,46.54716110,8.71080494,1972.31213379,0,6,1
1314891402.05256701,46.54716110,8.71080494,1972.29870605,0,6,1
1314891402.10338545,46.54716110,8.71080494,1972.28515625,0,6,1
1314891402.15395141,46.54716492,8.71080589,1972.47558594,0,6,1
1314891402.20051169,46.54716492,8.71080589,1972.46289062,0,6,1
1314891402.25256324,46.54716492,8.71080589,1972.45007324,0,6,1
1314891402.30420065,46.54716492,8.71080589,1972.43725586,0,6,1
1314891402.35256481,46.54716492,8.71080589,1972.42443848,0,6,1
1314891402.40494323,46.54716492,8.71080589,1972.62060547,0,6,1
1314891402.45247030,46.54716492,8.71080589,1972.60852051,0,6,1
1314891402.50164080,46.54716492,8.71080589,1972.59631348,0,6,1
1314891402.55256772,46.54716492,8.71080589,1972.58422852,0,6,1
1314891402.59263873,46.54716492,8.71080589,1972.57202148,0,6,1
1314891402.65343714,46.54716873,8.71080589,1972.78857422,0,6,1
1314891402.70166063,46.54716873,8.71080685,1972.76770020,0,6,1
1314891402.75247502,46.54716873,8.71080685,1972.75622559,0,6,1
1314891402.80163097,46.54716873,8.71080589,1972.74475098,0,6,1
1314891402.84451437,46.54716873,8.71080589,1972.73327637,0,6,1
1314891402.90151334,46.54717255,8.71080780,1972.93017578,0,6,1
1314891402.95251560,46.54717255,8.71080780,1972.91723633,0,6,1
1314891403.00149155,46.54717255,8.71080780,1972.90637207,0,6,1
1314891403.05252552,46.54717255,8.71080780,1972.89550781,0,6,1
1314891403.10125637,46.54717255,8.71080780,1972.88464355,0,6,1
1314891403.15253067,46.54717636,8.71081066,1973.09228516,0,6,1
1314891403.20142174,46.54717636,8.71081066,1973.08215332,0,6,1
1314891403.25251412,46.54717636,8.71081066,1973.07189941,0,6,1
1314891403.30083442,46.54717636,8.71081066,1973.06176758,0,6,1
1314891403.35360503,46.54717636,8.71081066,1973.05151367,0,6,1
1314891403.40062451,46.54717636,8.71081161,1973.26623535,0,6,1
1314891403.45360780,46.54717636,8.71081161,1973.25683594,0,6,1
1314891403.50054622,46.54717636,8.71081161,1973.24731445,0,6,1
1314891403.55260539,46.54717636,8.71081161,1973.23767090,0,6,1
1314891403.59471774,46.54718018,8.71081161,1973.22814941,0,6,1
1314891403.65257382,46.54718018,8.71081161,1973.45129395,0,6,1
1314891403.70160484,46.54718018,8.71081066,1973.43225098,0,6,1
1314891403.75261164,46.54718018,8.71081066,1973.42333984,0,6,1
1314891403.80047750,46.54718018,8.71081066,1973.41442871,0,6,1
1314891403.85257030,46.54718018,8.71081066,1973.40539551,0,6,1
1314891403.90052414,46.54718018,8.71081066,1973.62048340,0,6,1
1314891403.95257854,46.54718018,8.71081066,1973.61230469,0,6,1
1314891404.00057459,46.54718018,8.71081066,1973.60412598,0,6,1
1314891404.05360508,46.54718018,8.71081066,1973.59594727,0,6,1
1314891404.10055327,46.54718018,8.71081066,1973.58764648,0,6,1
1314891404.15250611,46.54718018,8.71080971,1973.81005859,0,6,1
1314891404.20159054,46.54718018,8.71080971,1973.80261230,0,6,1
1314891404.25246620,46.54718018,8.71080971,1973.79516602,0,6,1
1314891404.30062366,46.54718018,8.71080971,1973.78771973,0,6,1
1314891404.35359979,46.54718018,8.71080971,1973.78015137,0,6,1
1314891404.40153813,46.54718018,8.71080780,1974.00268555,0,6,1
1314891404.45358729,46.54718018,8.71080780,1973.99597168,0,6,1
1314891404.50088954,46.54718018,8.71080780,1973.98937988,0,6,1
1314891404.55261564,46.54718018,8.71080780,1973.98266602,0,6,1
1314891404.60059571,46.54718018,8.71080780,1973.97583008,0,6,1
1314891404.65362549,46.54718018,8.71080780,1974.19616699,0,6,1
1314891404.70047712,46.54718018,8.71080780,1974.19018555,0,6,1
1314891404.75362754,46.54718018,8.71080780,1974.18432617,0,6,1
1314891404.80128431,46.54718018,8.71080780,1974.17834473,0,6,1
1314891404.84151912,46.54718018,8.71080780,1974.17224121,0,6,1
1314891404.90148425,46.54718018,8.71080971,1974.39196777,0,6,1
1314891404.95259333,46.54718018,8.71080971,1974.38574219,0,6,1
1314891405.00284433,46.54718018,8.71080971,1974.38049316,0,6,1
1314891405.05247355,46.54718018,8.71080971,1974.37512207,0,6,1
1314891405.09427404,46.54718018,8.71080971,1974.36975098,0,6,1
1314891405.15257597,46.54718018,8.71081066,1974.60876465,0,6,1
1314891405.20158601,46.54718018,8.71081161,1974.59338379,0,6,1
1314891405.25258374,46.54718018,8.71081161,1974.58874512,0,6,1
1314891405.30179334,46.54718018,8.71081161,1974.58410645,0,6,1
1314891405.35257792,46.54718018,8.71081161,1974.57946777,0,6,1
1314891405.40051889,46.54718018,8.71081161,1974.82055664,0,6,1
1314891405.44164109,46.54718018,8.71081161,1974.81677246,0,6,1
1314891405.50050020,46.54718018,8.71081161,1974.81372070,0,6,1
1314891405.54052377,46.54718018,8.71081161,1974.80908203,0,6,1
1314891405.60044980,46.54718018,8.71081161,1974.80603027,0,6,1
1314891405.65345550,46.54718399,8.71081257,1975.06066895,0,6,1
1314891405.70047355,46.54718399,8.71081257,1975.05761719,0,6,1
1314891405.74054360,46.54718399,8.71081257,1975.05468750,0,6,1
1314891405.79382491,46.54718399,8.71081257,1975.05224609,0,6,1
1314891405.84049988,46.54718399,8.71081257,1975.04931641,0,6,1
1314891405.89351988,46.54718399,8.71081543,1975.35839844,0,6,1
1314891405.94053268,46.54718399,8.71081543,1975.35644531,0,6,1
1314891405.99349260,46.54718399,8.71081543,1975.35449219,0,6,1
1314891406.04051661,46.54718399,8.71081543,1975.35253906,0,6,1
1314891406.10320926,46.54718399,8.71081543,1975.35058594,0,6,1
1314891406.14247680,46.54718399,8.71081543,1975.65222168,0,6,1
1314891406.19360971,46.54718399,8.71081543,1975.65148926,0,6,1
1314891406.24062681,46.54718399,8.71081543,1975.65051270,0,6,1
1314891406.29009056,46.54718399,8.71081543,1975.64953613,0,6,1
1314891406.34047103,46.54718399,8.71081543,1975.64843750,0,6,1
1314891406.39259529,46.54718399,8.71081543,1975.94494629,0,6,1
1314891406.44059086,46.54718399,8.71081543,1975.94494629,0,6,1
1314891406.49317527,46.54718781,8.71081543,1975.94482422,0,6,1
1314891406.54059815,46.54718781,8.71081543,1975.94482422,0,6,1
1314891406.59350801,46.54718781,8.71081543,1975.94470215,0,6,1
1314891406.64057493,46.54718781,8.71081638,1976.23742676,0,6,1
1314891406.69250107,46.54718781,8.71081543,1976.23828125,0,6,1
1314891406.74161053,46.54718781,8.71081543,1976.23925781,0,6,1
1314891406.79252291,46.54718781,8.71081543,1976.24023438,0,6,1
1314891406.84060407,46.54718781,8.71081543,1976.24108887,0,6,1
1314891406.89263988,46.54718781,8.71081734,1976.48974609,0,6,1
1314891406.94159651,46.54718781,8.71081734,1976.49157715,0,6,1
1314891406.99353147,46.54718781,8.71081638,1976.49328613,0,6,1
1314891407.04068279,46.54718781,8.71081638,1976.49499512,0,6,1
1314891407.10411215,46.54718781,8.71081638,1976.49670410,0,6,1
1314891407.14160132,46.54718781,8.71081829,1976.69946289,0,6,1
1314891407.19259548,46.54718781,8.71081829,1976.70141602,0,6,1
1314891407.24059820,46.54718781,8.71081734,1976.70373535,0,6,1
1314891407.29361606,46.54718781,8.71081734,1976.70617676,0,6,1
1314891407.34061122,46.54718781,8.71081734,1976.70849609,0,6,1
1314891407.39360857,46.54718781,8.71081829,1976.87927246,0,6,1
1314891407.44061971,46.54718781,8.71081829,1976.87878418,0,6,1
1314891407.49381232,46.54718781,8.71081829,1976.88159180,0,6,1
1314891407.54056478,46.54718781,8.71081829,1976.88439941,0,6,1
1314891407.59251332,46.54718781,8.71081829,1976.88720703,0,6,1
1314891407.64058137,46.54718781,8.71081829,1977.03527832,0,6,1
1314891407.70149326,46.54718781,8.71081829,1977.03857422,0,6,1
1314891407.74075198,46.54718781,8.71081829,1977.04248047,0,6,1
1314891407.79355550,46.54718781,8.71081829,1977.04504395,0,6,1
1314891407.84553075,46.54718781,8.71081829,1977.04821777,0,6,1
1314891407.89353895,46.54718781,8.71081829,1977.17175293,0,6,1
1314891407.94058180,46.54718781,8.71081924,1977.16381836,0,6,1
1314891407.99254346,46.54718781,8.71081924,1977.16723633,0,6,1
1314891408.04165435,46.54718781,8.71081829,1977.17077637,0,6,1
1314891408.09255934,46.54718781,8.71081829,1977.17419434,0,6,1
1314891408.14058256,46.54719162,8.71081924,1977.28247070,0,6,1
1314891408.19260931,46.54719162,8.71082020,1977.27697754,0,6,1
1314891408.24059725,46.54719162,8.71082020,1977.28063965,0,6,1
1314891408.29251885,46.54719162,8.71082020,1977.28430176,0,6,1
1314891408.34154749,46.54719162,8.71082020,1977.28796387,0,6,1
1314891408.39346170,46.54719162,8.71082115,1977.35998535,0,6,1
1314891408.44050145,46.54719162,8.71082115,1977.36376953,0,6,1
1314891408.49253702,46.54719162,8.71082115,1977.36755371,0,6,1
1314891408.54149723,46.54719162,8.71082115,1977.37133789,0,6,1
1314891408.59251499,46.54719162,8.71082020,1977.37512207,0,6,1
1314891408.64443398,46.54719162,8.71082115,1977.45605469,0,6,1
1314891408.69249892,46.54719162,8.71082020,1977.45397949,0,6,1
1314891408.74050951,46.54719162,8.71082020,1977.45800781,0,6,1
1314891408.79258251,46.54719162,8.71082020,1977.46191406,0,6,1
1314891408.84052324,46.54719162,8.71082020,1977.46582031,0,6,1
1314891408.89354777,46.54719543,8.71082020,1977.53649902,0,6,1
1314891408.95257306,46.54719543,8.71082020,1977.54064941,0,6,1
1314891408.99348640,46.54719543,8.71082020,1977.54553223,0,6,1
1314891409.04191899,46.54719543,8.71082020,1977.54882812,0,6,1
1314891409.09252858,46.54719543,8.71081924,1977.55285645,0,6,1
1314891409.14049673,46.54719543,8.71081924,1977.63806152,0,6,1
1314891409.19258022,46.54719543,8.71081924,1977.64331055,0,6,1
1314891409.24046946,46.54719543,8.71081924,1977.64770508,0,6,1
1314891409.29251862,46.54719543,8.71081924,1977.65197754,0,6,1
1314891409.34048367,46.54719543,8.71081924,1977.65625000,0,6,1
1314891409.39252543,46.54719543,8.71081924,1977.73803711,0,6,1
1314891409.44049549,46.54719543,8.71081924,1977.72741699,0,6,1
1314891409.49375844,46.54719543,8.71081924,1977.73181152,0,6,1
1314891409.54058290,46.54719543,8.71081924,1977.73620605,0,6,1
1314891409.59359384,46.54719543,8.71081924,1977.74047852,0,6,1
1314891409.64059997,46.54719543,8.71081924,1977.80383301,0,6,1
1314891409.69269323,46.54719543,8.71081829,1977.80834961,0,6,1
1314891409.74069595,46.54719543,8.71081829,1977.81274414,0,6,1
1314891409.79260731,46.54719925,8.71081829,1977.81713867,0,6,1
1314891409.84048390,46.54719925,8.71081829,1977.82153320,0,6,1
1314891409.89260507,46.54719925,8.71081829,1977.87841797,0,6,1
1314891409.94060779,46.54719925,8.71081829,1977.88281250,0,6,1
1314891409.99261498,46.54719925,8.71081734,1977.88732910,0,6,1
1314891410.04057813,46.54719925,8.71081734,1977.89172363,0,6,1
1314891410.09249043,46.54719925,8.71081734,1977.89611816,0,6,1
1314891410.14056849,46.54719925,8.71081734,1977.94104004,0,6,1
1314891410.19029045,46.54719925,8.71081734,1977.93518066,0,6,1
1314891410.24091387,46.54719925,8.71081734,1977.93969727,0,6,1
1314891410.29264760,46.54719925,8.71081734,1977.94409180,0,6,1
1314891410.34061718,46.54719925,8.71081734,1977.94848633,0,6,1
1314891410.39260983,46.54719925,8.71081638,1977.98291016,0,6,1
1314891410.44159031,46.54719925,8.71081638,1977.97692871,0,6,1
1314891410.49260521,46.54719925,8.71081638,1977.98132324,0,6,1
1314891410.54160404,46.54719925,8.71081638,1977.98571777,0,6,1
1314891410.59248352,46.54719925,8.71081638,1977.98999023,0,6,1
1314891410.64070106,46.54719925,8.71081543,1978.01538086,0,6,1
1314891410.69262028,46.54719925,8.71081543,1978.00744629,0,6,1
1314891410.74077535,46.54719925,8.71081543,1978.01171875,0,6,1
1314891410.79357195,46.54719925,8.71081543,1978.01599121,0,6,1
1314891410.84058857,46.54719925,8.71081543,1978.02026367,0,6,1
1314891410.89258766,46.54719925,8.71081543,1978.02697754,0,6,1
1314891410.94058704,46.54719925,8.71081543,1978.03112793,0,6,1
1314891410.99258614,46.54719925,8.71081543,1978.03527832,0,6,1
1314891411.04058647,46.54719925,8.71081543,1978.03942871,0,6,1
1314891411.09090400,46.54719925,8.71081448,1978.04357910,0,6,1
1314891411.14057899,46.54719925,8.71081448,1978.05334473,0,6,1
1314891411.19352412,46.54720306,8.71081543,1978.03503418,0,6,1
1314891411.24051356,46.54720306,8.71081543,1978.03894043,0,6,1
1314891411.29250669,46.54720306,8.71081543,1978.04284668,0,6,1
1314891411.34450459,46.54720306,8.71081543,1978.04675293,0,6,1
1314891411.39279437,46.54720306,8.71081543,1978.03466797,0,6,1
1314891411.44150567,46.54720306,8.71081543,1978.03833008,0,6,1
1314891411.49058032,46.54720306,8.71081543,1978.04199219,0,6,1
1314891411.54154921,46.54720306,8.71081543,1978.04565430,0,6,1
1314891411.59094214,46.54720306,8.71081448,1978.04931641,0,6,1
1314891411.64456868,46.54720306,8.71081543,1978.03430176,0,6,1
1314891411.69132853,46.54720306,8.71081543,1978.03771973,0,6,1
1314891411.74139023,46.54720306,8.71081543,1978.04125977,0,6,1
1314891411.79160523,46.54720306,8.71081543,1978.04467773,0,6,1
1314891411.84052682,46.54720306,8.71081543,1978.04809570,0,6,1
1314891411.89351344,46.54720306,8.71081543,1978.03222656,0,6,1
1314891411.94051504,46.54720306,8.71081543,1978.03552246,0,6,1
1314891411.99288177,46.54720306,8.71081543,1978.03869629,0,6,1
1314891412.04399538,46.54720306,8.71081543,1978.04187012,0,6,1
1314891412.09246969,46.54720306,8.71081543,1978.04504395,0,6,1
